This is the latest recevied weather packets stored in our database for station/object SP1BMW-13. If no packets are shown the sender has not sent any weather packets the latest 10 day(s).
| Time | Temp. | Humidity | Pressure | Rain* | Wind** | Luminosity | Snow |
|---|---|---|---|---|---|---|---|
| 1787493166 | 20.56° C | 48% | 1017.1 hPa | 0 mm | 1.34 m/s, 204° | 269 W/m² | - |
| 1787493106 | 20.56° C | 48% | 1017.2 hPa | 0 mm | 2.24 m/s, 82° | 398 W/m² | - |
| 1787493046 | 20.56° C | 50% | 1017.2 hPa | 0 mm | 3.13 m/s, 239° | 394 W/m² | - |
| 1787492986 | 20.56° C | 51% | 1017.2 hPa | 0 mm | 1.79 m/s, 235° | 674 W/m² | - |
| 1787492926 | 20.56° C | 51% | 1017 hPa | 0 mm | 0.45 m/s, 248° | 467 W/m² | - |
| 1787492866 | 20.56° C | 51% | 1017 hPa | 0 mm | 2.24 m/s, 302° | 706 W/m² | - |
| 1787492806 | 20.56° C | 50% | 1017.2 hPa | 0 mm | 2.24 m/s, 251° | 278 W/m² | - |
| 1787492746 | 20.56° C | 50% | 1017.1 hPa | 0 mm | 0.89 m/s, 250° | 324 W/m² | - |
| 1787492686 | 20.56° C | 51% | 1017.2 hPa | 0 mm | 1.79 m/s, 245° | 276 W/m² | - |
| 1787492626 | 20.56° C | 51% | 1017 hPa | 0 mm | 1.79 m/s, 239° | 355 W/m² | - |
| 1787492565 | 20.56° C | 52% | 1017.1 hPa | 0 mm | 0.89 m/s, 129° | 690 W/m² | - |
| 1787492506 | 20.56° C | 51% | 1017.3 hPa | 0 mm | 2.68 m/s, 256° | 642 W/m² | - |
| 1787492446 | 20.56° C | 50% | 1017.2 hPa | 0 mm | 1.79 m/s, 313° | 361 W/m² | - |
| 1787492385 | 20.56° C | 50% | 1017.1 hPa | 0 mm | 1.34 m/s, 236° | 502 W/m² | - |
| 1787492325 | 20.56° C | 51% | 1017.2 hPa | 0 mm | 2.24 m/s, 222° | 331 W/m² | - |
| 1787492265 | 21.11° C | 50% | 1017.2 hPa | 0 mm | 2.68 m/s, 256° | 419 W/m² | - |
| 1787492206 | 21.11° C | 50% | 1017.2 hPa | 0 mm | 1.79 m/s, 266° | 443 W/m² | - |
| 1787492146 | 21.11° C | 51% | 1017.2 hPa | 0 mm | 1.79 m/s, 339° | 714 W/m² | - |
| 1787492085 | 20.56° C | 50% | 1017.2 hPa | 0 mm | 0.89 m/s, 225° | 614 W/m² | - |
| 1787492026 | 20.56° C | 51% | 1017.2 hPa | 0 mm | 1.34 m/s, 257° | 496 W/m² | - |
| 1787491966 | 20.56° C | 49% | 1017.2 hPa | 0 mm | 2.68 m/s, 239° | 693 W/m² | - |
| 1787491905 | 20.56° C | 49% | 1017.2 hPa | 0 mm | 2.24 m/s, 225° | 733 W/m² | - |
| 1787491845 | 20.56° C | 52% | 1017.2 hPa | 0 mm | 1.34 m/s, 180° | 708 W/m² | - |
| 1787491785 | 20° C | 53% | 1017.3 hPa | 0 mm | 1.34 m/s, 325° | 690 W/m² | - |
| 1787491726 | 20° C | 51% | 1017.2 hPa | 0 mm | 2.24 m/s, 276° | 684 W/m² | - |
* Rain latest hour (hover to see other rain measurements)
** Current wind speed in m/s (hover to see current wind gust speed)